Location: ???????
(37.9898°N, 23.7942°E)
Time: 00:05:17
(UTC+00:00)

Daily predictions for brighter satellites

Satellite Brightness Start Highest point End
(mag) Time Altitude Azimuth Time Altitude Azimuth Time Altitude Azimuth
SME Rocket 4.4 01:54:52 10° SE 02:00:27 48° E 02:00:27 48° E
ALOS 4.0 02:06:19 10° NNE 02:08:19 25° NNE 02:08:19 25° NNE
Atlas Centaur 2 3.9 02:11:37 26° S 02:12:33 27° SSE 02:17:44 10° ESE
Cosmos 2366 rocket 4.0 02:07:45 10° N 02:14:09 79° E 02:20:29 10° S
Cosmos 2237 4.5 02:14:03 58° NNE 02:14:53 66° ENE 02:20:33 10° SSE
Cosmos 1833 4.1 02:22:09 84° E 02:22:09 84° E 02:27:45 10° NNE
SEDSat Delta rocket 4.3 02:25:23 36° SSE 02:25:23 36° SSE 02:28:53 10° ESE
USA 305 4.3 02:29:35 32° NNE 02:29:35 32° NNE 02:31:59 10° NE
Cosmos 1538 Rocket 4.1 02:30:52 65° N 02:30:52 65° N 02:35:31 10° NNE
Cosmos 1484 Rocket 4.2 02:27:42 10° NNE 02:30:04 34° NE 02:30:04 34° NE
PSLV R/B 4.1 02:28:20 10° NNE 02:32:39 57° E 02:34:04 38° SSE
SL-4 R/B 2.9 02:37:43 45° NNE 02:37:52 45° NNE 02:41:49 10° ESE
Cosmos 304 Rocket 3.7 02:38:49 58° N 02:39:46 83° ENE 02:44:35 10° SSE
SL-16 R/B 3.5 02:43:00 24° SSW 02:43:00 24° SSW 02:45:21 10° S
Cosmos 2181 Rocket 4.5 02:42:48 40° NW 02:42:48 40° NW 02:47:24 10° N
CZ-2C R/B 4.3 02:37:40 10° N 02:38:50 17° N 02:38:50 17° N
Nadezhda 3 Rocket 4.3 02:38:15 10° S 02:44:17 66° E 02:50:24 10° NNE
ASTRO E2 4.2 02:49:37 25° S 02:49:42 25° S 02:52:59 10° ESE
Meteor 1-16 Rocket 4.0 02:45:10 10° N 02:50:35 85° E 02:55:53 10° S
Cosmos 2322 Rocket 2.4 02:51:36 48° WSW 02:51:36 48° WSW 02:56:38 10° S
Cosmos 1900 4.1 02:50:54 65° W 02:51:22 71° WNW 02:56:15 10° NNE
Cosmos 2219 Rocket 3.4 02:50:24 10° N 02:55:45 41° ENE 03:01:05 10° SE
Lacrosse 5 1.9 02:56:07 54° WSW 02:56:34 56° SW 03:01:30 10° SSE
Cosmos 1626 4.1 02:59:13 18° N 02:59:13 18° N 03:00:19 10° N
H-2A ROCKET BODY 4.1 02:56:07 25° SW 02:57:13 26° SW 03:01:30 10° SSE
USA 307 3.5 02:58:32 40° NNW 02:58:32 40° NNW 03:02:03 10° NE
Cosmos 1821 Rocket 4.0 02:52:22 10° N 02:58:34 80° E 03:04:39 10° S
USA 306 3.7 02:59:42 36° NNW 02:59:42 36° NNW 03:03:13 10° NNE
Cosmos 2360 Rocket 2.1 02:56:00 20° NNW 02:59:58 71° WSW 03:05:35 10° SSE
SL-08 R/B 4.5 02:54:07 10° N 03:00:37 82° W 03:07:03 10° S
Cosmos 332 Rocket 3.8 03:03:55 41° WNW 03:05:08 53° WSW 03:09:47 10° S
Cosmos 923 Rocket 3.8 03:03:54 10° SSW 03:09:06 81° WNW 03:14:20 10° NNE
Cosmos 1025 Rocket 3.1 03:05:06 10° S 03:09:24 78° E 03:13:42 10° N
Cosmos 2218 Rocket 4.5 03:03:46 10° NNW 03:09:29 36° W 03:15:10 10° SSW
Cosmos 1680 Rocket 3.6 03:05:20 10° SSW 03:10:32 78° ESE 03:15:49 10° NNE
FENGYUN 3A 4.4 03:05:59 10° N 03:10:26 31° WNW 03:10:26 31° WNW
Cosmos 1908 4.2 03:12:14 30° SSW 03:12:14 30° SSW 03:14:27 10° SSW
Cosmos 2333 Rocket 2.5 03:05:58 10° NNW 03:11:45 72° ENE 03:17:29 10° SSE
OAO 2 Rocket 4.0 03:10:19 32° SW 03:11:45 40° SSW 03:16:23 10° SE
Envisat 3.9 03:07:28 10° NNE 03:12:25 50° E 03:17:19 10° S
Cosmos 220 Rocket 4.0 03:13:03 32° NW 03:14:42 54° WSW 03:18:47 10° S
ERBS 2.0 03:16:02 62° W 03:16:25 72° NW 03:19:40 10° NE
CZ-4C R/B 3.0 03:10:16 10° NW 03:17:54 78° WSW 03:26:31 10° SSE
SL-24 R/B - RUBIN 2 3.6 03:17:07 32° WNW 03:18:48 52° WSW 03:22:58 10° SSE
USA 308 3.9 03:20:44 28° NW 03:21:21 29° NNW 03:25:05 10° NNE
Meteor 2-5 Rocket 4.0 03:20:37 10° S 03:26:06 71° E 03:31:40 10° NNE
Cosmos 1536 Rocket 4.3 03:25:17 10° S 03:29:35 56° E 03:33:52 10° NNE
Cosmos 1953 2.9 03:27:39 18° NW 03:30:00 33° W 03:33:35 10° SSW
USA 234 3.2 03:24:03 10° NE 03:30:33 71° NW 03:37:02 10° WSW
BREEZE M DEB (TANK) 3.6 03:29:26 26° W 03:30:36 31° SW 03:33:04 10° SSE
Cosmos 1441 Rocket 3.3 03:27:07 10° SSW 03:30:44 48° WNW 03:34:21 10° N
H-2A R/B 2.6 03:27:43 10° NNE 03:31:30 86° ESE 03:35:13 10° S
COSMO-SKYMED 1 3.1 03:28:19 10° SSE 03:32:36 63° ENE 03:36:54 10° N
ISS -2.2 03:32:54 21° NW 03:33:20 21° NNW 03:36:00 10° NNE
Cosmos 2322 3.7 03:27:38 10° NNW 03:33:21 87° WSW 03:39:00 10° SSE
Meteor 1-31 Rocket 2.9 03:30:12 10° NNE 03:34:00 75° ESE 03:37:46 10° S
Cosmos 1300 2.5 03:32:38 10° N 03:36:27 80° W 03:40:14 10° S
Cosmos 1455 Rocket 3.3 03:32:41 10° NNW 03:36:55 45° W 03:41:07 10° SSW
CZ-4B R/B 3.7 03:33:19 10° NNE 03:37:03 86° ESE 03:40:54 10° SSW
COSMOS 2487 3.4 03:38:47 24° WNW 03:38:52 25° WNW 03:41:41 10° N
Cosmos 2112 Rocket 3.9 03:34:15 10° SSW 03:39:25 67° WNW 03:44:41 10° NNE
Meteor 2-10 Rocket 3.8 03:39:22 10° N 03:44:22 68° E 03:49:21 10° SSE
SL-14 R/B 4.0 03:41:01 10° SW 03:44:28 29° WNW 03:47:55 10° NNW
Cosmos 1975 Rocket 4.1 03:43:27 10° SW 03:47:02 24° WNW 03:50:38 10° NNW
BREEZE-M DEB (TANK) 3.2 03:45:32 13° NW 03:47:05 20° N 03:48:53 10° ENE
ALOS 4.2 03:45:55 10° NW 03:46:47 12° NW 03:46:47 12° NW
GEOS 3 Rocket 3.9 03:45:24 10° NE 03:50:32 71° ESE 03:55:35 10° SSW
Cosmos 1238 4.4 03:47:34 10° SSW 03:50:35 43° W 03:53:27 10° N
Meteor 1-24 Rocket 3.6 03:45:39 10° S 03:50:58 84° W 03:56:28 10° N
Cosmos 1544 Rocket 3.6 03:47:15 10° NNW 03:51:32 57° W 03:55:47 10° S
Cosmos 1339 Rocket 4.4 03:46:21 10° S 03:52:32 78° W 03:58:41 10° N
Cosmos 1624 Rocket 4.4 03:48:06 10° NNW 03:53:25 68° ENE 03:58:40 10° SSE
Meteor 1-4 Rocket 2.4 03:52:05 10° NNW 03:55:31 60° W 03:59:00 10° S
Atlas Centaur 2 3.3 03:55:09 10° WSW 04:01:20 38° S 04:06:18 10° ESE
Meteor PRIRODA 4.4 03:59:30 10° NNE 04:03:09 58° E 04:06:44 10° S
CZ-4B R/B 4.4 04:02:28 10° ESE 04:04:11 14° ENE 04:05:55 10° NE
USA 276 4.5 04:03:50 10° NW 04:05:07 12° NNW 04:06:23 10° N
SEDSat Delta rocket 4.5 04:06:00 10° WSW 04:10:08 28° SSW 04:13:53 10° SE
CZ-2C R/B 2.8 04:05:33 10° S 04:11:00 65° W 04:16:35 10° NNW
Cosmos 2297 Rocket 2.3 04:10:38 10° SSW 04:16:16 84° ESE 04:21:57 10° NNE
COSMOS 2428 2.9 04:10:46 10° NNW 04:16:18 53° WSW 04:21:49 10° S
SL-4 R/B 3.2 04:13:45 10° WNW 04:17:15 26° SW 04:20:33 10° S
CZ-2C R/B 3.6 04:12:37 10° NNE 04:17:40 62° E 04:22:27 10° S
NOSS 3-3 (A) 4.5 04:12:59 10° WSW 04:18:12 37° NW 04:24:05 10° NNE
NOSS 3-3 (C) 4.4 04:13:02 10° WSW 04:18:16 37° NW 04:24:10 10° NNE
Cosmos 2219 3.8 04:14:16 10° S 04:19:52 66° ESE 04:25:28 10° NNE
SKYMED 2 4.2 04:16:43 10° SSW 04:20:41 35° W 04:24:41 10° NNW
